Location: Unspecified
(42.9300°N, 71.1866°W)
Time: 17:23:40
(UTC-04:00)

GENESIS II - Visible Passes

Search period start: 24 April 2014 00:00
Search period end: 04 May 2014 00:00
Orbit: 526 x 546 km, 64.5° (Epoch: 24 April)

Date Brightness Start Highest point End Pass type
(mag) Time Alt. Az. Time Alt. Az. Time Alt. Az.
24 Apr 6.3 02:40:01 10° NNW 02:43:30 27° NE 02:46:57 10° ESE visible
24 Apr 5.0 04:18:04 10° NW 04:21:37 31° WSW 04:23:39 19° SSW visible
25 Apr 6.0 02:30:44 10° NNW 02:34:23 31° NE 02:35:01 30° ENE visible
25 Apr 6.1 04:09:02 10° WNW 04:10:16 17° WNW 04:10:16 17° WNW visible
26 Apr 6.0 02:21:29 10° NNW 02:24:19 32° NNE 02:24:19 32° NNE visible
27 Apr 6.3 02:12:13 10° NNW 02:14:16 26° N 02:14:16 26° N visible
28 Apr 6.5 02:02:58 10° NNW 02:04:31 22° NNW 02:04:31 22° NNW visible
29 Apr 7.4 00:18:15 10° NNE 00:18:44 10° NNE 00:19:13 10° NE visible
29 Apr 6.7 01:53:43 10° NNW 01:54:55 19° NNW 01:54:55 19° NNW visible
30 Apr 7.2 00:08:15 10° NNE 00:09:38 11° NE 00:10:04 11° NE visible
30 Apr 6.8 01:44:28 10° NNW 01:45:26 17° NNW 01:45:26 17° NNW visible
30 Apr 7.1 23:58:37 10° N 00:00:31 13° NE 00:00:40 13° NE visible
01 May 6.9 01:35:14 10° NNW 01:36:02 15° NNW 01:36:02 15° NNW visible
01 May 6.9 23:49:06 10° N 23:51:18 14° NE 23:51:18 14° NE visible
02 May 7.0 01:26:00 10° NW 01:26:41 15° NW 01:26:41 15° NW visible
02 May 6.8 23:39:38 10° N 23:42:00 16° NE 23:42:00 16° NE visible
03 May 7.0 01:16:47 10° NW 01:17:23 14° NW 01:17:23 14° NW visible
03 May 6.6 23:30:12 10° N 23:32:44 18° NE 23:32:44 18° NE visible
